[[{"header":{"parameterUnit":"m.s-1","parameterCategory":1,"la1":30.2991,"la2":30.254,"lo1":-89.0895,"lo2":-89.0444,"dy":0.0017,"dx":0.0017,"nx":28,"ny":28,"refTime":"2023-07-22T09:00:00:Z","depth":0,"parameterNumber":2,"parameterNumberName":"U-component_of_WINDS"},"data":[0,0,0,0,0,0,0,0,0,0,0,0,0,0,0,0,0,0,0,0,0,0,0,0,0,0,0,0,0,0,0,0,0,0,0,0,0,0,0,0,0,0,0,0,0,0,0,0,0,0,0,0,0,0,0,0,0,0,4.047,4.0471,0,4.0543,4.0544,4.0545,4.0526,4.0524,4.0523,4.0521,4.0599,4.0602,4.0606,0,0,0,0,0,0,0,0,0,0,0,0,0,4.0317,4.0319,4.047,4.0471,4.0472,4.0543,4.0544,4.0545,4.0526,4.0524,4.0522,4.0521,4.0598,4.0602,4.0606,0,0,0,0,0,0,0,0,0,0,0,0,0,4.0386,4.032,4.047,4.0471,4.0471,4.0543,4.0544,4.0545,4.0526,4.0524,4.0522,4.052,4.0597,4.0602,4.0607,4.0682,0,0,4.0622,4.0625,0,0,0,0,0,0,0,0,4.0382,4.0392,4.047,4.0471,4.0472,4.0523,4.0519,4.0591,4.0527,4.0506,4.0521,4.0519,4.0576,4.0582,4.0601,4.0686,4.0689,4.0623,4.0626,4.0628,4.063,0,0,0,0,0,0,0,4.0377,4.0388,4.0499,4.0471,4.0472,4.0469,4.0476,4.0532,4.0552,4.0507,4.0506,4.0515,4.0576,4.0596,4.0603,4.069,4.0623,4.0627,4.063,4.0632,4.0845,4.0847,0,0,0,0,0,0,4.0371,4.0384,4.0497,4.0501,4.042,4.0473,4.0481,4.0509,4.0551,4.0556,4.0517,4.0514,4.0588,4.0597,4.0605,4.0699,4.0628,4.0633,4.0636,4.0842,4.0845,4.0848,0,0,0,0,0,0,4.0368,4.0381,4.0494,4.0443,4.0457,4.0478,4.0509,4.0511,4.0532,4.0559,4.0562,4.0534,4.0587,4.0598,4.0664,4.0701,4.0635,4.064,4.0839,4.0843,4.0846,4.0886,0,0,0,0,0,0,4.0364,4.038,4.0408,4.0443,4.0459,4.055,4.0511,4.0514,4.054,4.0537,4.0575,4.058,4.0586,4.0656,4.0669,4.0707,4.0644,4.0836,4.0841,4.0845,4.0881,4.089,4.0898,0,0,0,0,0,4.0358,4.0416,4.041,4.0423,4.0494,4.0552,4.0561,4.0567,4.0543,4.0573,4.059,4.0578,4.0695,4.0663,4.0677,4.0718,4.0833,4.0839,4.0845,4.0877,4.0889,4.0898,0,0,0,0,0,0,4.0385,4.0421,4.0414,4.0485,4.0515,4.0548,4.0585,4.0578,4.0617,4.0612,4.0618,4.0627,4.0695,4.0713,4.0677,4.0795,4.0761,4.077,4.0781,4.0792,4.08,4.0795,4.0648,0,0,0,0,0,4.0399,4.0442,4.0471,4.0531,4.0546,4.0563,4.0588,4.059,4.0623,4.0636,4.0658,4.0691,4.0735,4.0764,4.0806,4.0883,4.0893,4.0918,4.0927,4.0934,4.0942,4.0987,4.0999,4.0867,4.0867,4.0867,0,0,4.0429,4.0453,4.048,4.0537,4.0561,4.0606,4.0574,4.0623,4.0658,4.0643,4.0707,4.0725,4.0762,4.0835,4.0868,4.0852,4.0981,4.0941,4.0946,4.0951,4.0994,4.1006,4.1018,4.0871,4.087,4.0869,0,0,4.0506,4.0528,4.0582,4.0607,4.0644,4.0655,4.0668,4.0703,4.0714,4.0778,4.0769,4.0811,4.0886,4.0914,4.0938,4.1029,4.102,4.1042,4.1088,4.1131,4.1142,4.1151,4.1186,4.1198,4.105,4.105,4.105,0,4.0539,4.0606,4.061,4.0661,4.0687,4.0676,4.0732,4.0756,4.0805,4.0824,4.0805,4.0902,4.0926,4.1006,4.1028,4.1047,4.1064,4.1038,4.114,4.1149,4.1158,4.1191,4.1204,4.1053,4.1052,4.1052,4.1052,0,4.0646,4.0693,4.0732,4.078,4.081,4.0863,4.0877,4.0907,4.0907,4.0921,4.0988,4.1017,4.1065,4.1084,4.1084,4.1166,4.1155,4.1138,4.1104,4.1173,4.1204,4.1217,4.1056,4.1055,4.1055,4.1054,0,0,4.0742,4.0793,4.0807,4.083,4.0871,4.0908,4.0961,4.1009,4.1036,4.1071,4.1117,4.1182,4.1167,4.1195,4.1198,4.1236,4.1309,4.1215,4.1216,4.1233,4.1404,4.1417,4.1432,4.1304,4.1306,4.1308,4.1401,0,4.0825,4.0918,4.0924,4.1009,4.1054,4.1045,4.1092,4.1123,4.1138,4.118,4.1196,4.1243,4.1219,4.1236,4.1273,4.1292,4.1344,4.1286,4.1349,4.1351,4.1341,4.1448,4.1462,4.1548,4.1413,4.1415,4.1417,0,4.0934,4.0972,4.1061,4.1098,4.1118,4.1159,4.1205,4.1244,4.128,4.1288,4.132,4.1318,4.1375,4.1339,4.1419,4.1379,4.1405,4.1419,4.1423,4.143,4.1389,4.146,4.1576,4.159,4.1436,4.1434,4.1433,0,4.0998,4.1072,4.1136,4.1155,4.1199,4.1229,4.1249,4.1283,4.1312,4.1352,4.1371,4.1417,4.1443,4.148,4.1492,4.1464,4.1572,4.1536,4.1582,4.1582,4.1606,4.1605,4.173,4.1621,4.162,4.162,4.162,0,4.1091,4.1146,4.1165,4.1205,4.1267,4.1275,4.1337,4.1356,4.1386,4.143,4.1425,4.1467,4.148,4.1524,4.1534,4.16,4.1611,4.1621,4.1623,4.1622,4.1621,4.1641,4.1636,4.1624,4.1623,4.1622,4.1622,0,4.1173,4.1188,4.1257,4.1293,4.1304,4.1349,4.1381,4.142,4.1434,4.149,4.1504,4.1527,4.1579,4.1595,4.1658,4.1664,4.1743,4.1738,4.173,4.1731,4.1777,4.1773,4.1921,4.1941,4.1816,4.1817,4.1818,0,4.1232,4.1275,4.1316,4.1345,4.1367,4.1413,4.1443,4.1453,4.1484,4.153,4.1564,4.1616,4.1658,4.1742,4.1766,4.1814,4.1813,4.1861,4.182,4.1819,4.1816,4.1814,4.1819,4.1869,4.187,4.1871,4.1872,0,4.1337,4.1342,4.1385,4.1431,4.1467,4.1504,4.154,4.1564,4.1579,4.1615,4.1668,4.1701,4.1766,4.1818,4.1868,4.189,4.1885,4.1885,4.1899,4.1899,4.1893,4.1899,4.1753,4.1882,4.1881,4.188,4.1879,4.1879,4.1411,4.145,4.1485,4.1534,4.1562,4.1595,4.1634,4.1654,4.1699,4.1752,4.1755,4.1814,4.1851,4.1917,4.1942,4.1989,4.1975,4.1995,4.2,4.2005,4.201,4.1885,4.1998,4.1998,4.1998,4.1998,4.1997,0,4.1517,4.154,4.1584,4.1635,4.1674,4.1664,4.1703,4.1737,4.1788,4.1823,4.1865,4.1928,4.1979,4.2007,4.2058,4.2091,4.209,4.2104,4.2103,4.2109,4.2018,4.2002,4.2104,4.2104,4.2104,4.2104,4.2104,4.2104,4.1577,4.1642,4.1653,4.1733,4.1755,4.1812,4.1836,4.1868,4.1896,4.1966,4.2009,4.2026,4.2059,4.2113,4.2161,4.2168,4.2188,4.2204,4.221,4.2125,4.2114,4.2104,4.2089,4.2208,4.2208,4.2296,4.2297,4.2298]},{"header":{"parameterUnit":"m.s-1","parameterCategory":1,"la1":30.2991,"la2":30.254,"lo1":-89.0895,"lo2":-89.0444,"dy":0.0017,"dx":0.0017,"nx":28,"ny":28,"refTime":"2023-07-22T09:00:00:Z","depth":0,"parameterNumber":3,"parameterNumberName":"V-component_of_WINDS"},"data":[0,0,0,0,0,0,0,0,0,0,0,0,0,0,0,0,0,0,0,0,0,0,0,0,0,0,0,0,0,0,0,0,0,0,0,0,0,0,0,0,0,0,0,0,0,0,0,0,0,0,0,0,0,0,0,0,0,0,-0.4015,-0.4015,0,-0.4,-0.4,-0.4,-0.4006,-0.4007,-0.4007,-0.4007,-0.399,-0.399,-0.3989,0,0,0,0,0,0,0,0,0,0,0,0,0,-0.4048,-0.4048,-0.4015,-0.4015,-0.4015,-0.4,-0.4,-0.4,-0.4006,-0.4007,-0.4007,-0.4008,-0.3991,-0.399,-0.3989,0,0,0,0,0,0,0,0,0,0,0,0,0,-0.4034,-0.4047,-0.4015,-0.4016,-0.4016,-0.4,-0.4,-0.4,-0.4006,-0.4007,-0.4007,-0.4008,-0.3991,-0.399,-0.3989,-0.397,0,0,-0.3985,-0.3984,0,0,0,0,0,0,0,0,-0.4034,-0.4032,-0.4016,-0.4016,-0.4016,-0.4006,-0.4006,-0.399,-0.4006,-0.401,-0.4007,-0.4008,-0.3995,-0.3993,-0.3989,-0.3969,-0.3969,-0.3985,-0.3984,-0.3984,-0.3983,0,0,0,0,0,0,0,-0.4035,-0.4033,-0.4009,-0.4016,-0.4016,-0.4017,-0.4016,-0.4003,-0.3999,-0.401,-0.401,-0.4008,-0.3995,-0.399,-0.3989,-0.3968,-0.3985,-0.3984,-0.3983,-0.3983,-0.3934,-0.3934,0,0,0,0,0,0,-0.4037,-0.4034,-0.401,-0.4009,-0.4027,-0.4016,-0.4015,-0.4009,-0.4,-0.3999,-0.4008,-0.4009,-0.3992,-0.399,-0.3988,-0.3967,-0.3984,-0.3982,-0.3982,-0.3935,-0.3934,-0.3934,0,0,0,0,0,0,-0.4037,-0.4034,-0.401,-0.4022,-0.4019,-0.4015,-0.4008,-0.4008,-0.4004,-0.3998,-0.3998,-0.4004,-0.3993,-0.399,-0.3975,-0.3967,-0.3982,-0.3981,-0.3936,-0.3935,-0.3934,-0.3925,0,0,0,0,0,0,-0.4038,-0.4035,-0.4028,-0.4021,-0.4018,-0.3998,-0.4008,-0.4007,-0.4002,-0.4003,-0.3994,-0.3994,-0.3993,-0.3977,-0.3974,-0.3966,-0.398,-0.3936,-0.3935,-0.3934,-0.3926,-0.3924,-0.3922,0,0,0,0,0,-0.4039,-0.4025,-0.4027,-0.4024,-0.4009,-0.3997,-0.3995,-0.3995,-0.4001,-0.3994,-0.3991,-0.3994,-0.3968,-0.3975,-0.3972,-0.3963,-0.3937,-0.3935,-0.3934,-0.3927,-0.3924,-0.3922,0,0,0,0,0,0,-0.4029,-0.4024,-0.4027,-0.401,-0.4004,-0.3998,-0.3989,-0.3992,-0.3984,-0.3985,-0.3985,-0.3983,-0.3968,-0.3964,-0.3972,-0.3946,-0.3953,-0.3951,-0.3949,-0.3946,-0.3944,-0.3946,-0.3979,0,0,0,0,0,-0.4025,-0.4016,-0.4012,-0.3998,-0.3995,-0.3993,-0.3987,-0.3988,-0.3981,-0.3979,-0.3974,-0.3968,-0.3958,-0.3952,-0.3943,-0.3925,-0.3924,-0.3918,-0.3916,-0.3914,-0.3912,-0.3904,-0.3901,-0.3929,-0.3929,-0.3929,0,0,-0.4017,-0.4013,-0.4007,-0.3996,-0.3991,-0.3982,-0.399,-0.3979,-0.3973,-0.3977,-0.3963,-0.396,-0.3952,-0.3936,-0.3929,-0.3933,-0.3905,-0.3913,-0.3911,-0.391,-0.3902,-0.39,-0.3897,-0.3929,-0.3929,-0.3929,0,0,-0.3996,-0.3992,-0.398,-0.3976,-0.397,-0.3969,-0.3966,-0.396,-0.3958,-0.3945,-0.3948,-0.394,-0.3923,-0.3918,-0.3913,-0.3893,-0.3896,-0.389,-0.388,-0.3871,-0.3869,-0.3867,-0.3861,-0.3858,-0.3888,-0.3888,-0.3888,0,-0.3986,-0.3972,-0.3974,-0.3963,-0.3958,-0.3963,-0.3951,-0.3947,-0.3937,-0.3934,-0.3938,-0.3919,-0.3914,-0.3898,-0.3893,-0.3889,-0.3886,-0.3891,-0.387,-0.3868,-0.3866,-0.386,-0.3857,-0.3887,-0.3888,-0.3888,-0.3888,0,-0.3961,-0.3951,-0.3942,-0.3935,-0.3929,-0.3918,-0.3917,-0.3911,-0.3913,-0.3911,-0.3898,-0.3892,-0.3883,-0.3879,-0.388,-0.3863,-0.3866,-0.387,-0.3878,-0.3863,-0.3857,-0.3854,-0.3887,-0.3887,-0.3887,-0.3887,0,0,-0.3933,-0.3927,-0.3924,-0.3921,-0.3915,-0.3907,-0.3897,-0.3888,-0.3884,-0.3877,-0.3869,-0.3855,-0.386,-0.3855,-0.3855,-0.3848,-0.3833,-0.3853,-0.3853,-0.385,-0.3815,-0.3812,-0.381,-0.3835,-0.3834,-0.3834,-0.3816,0,-0.3912,-0.3894,-0.3896,-0.3879,-0.3871,-0.3876,-0.3867,-0.3862,-0.386,-0.3853,-0.3851,-0.3842,-0.3848,-0.3845,-0.3838,-0.3836,-0.3826,-0.3837,-0.3827,-0.3826,-0.3829,-0.3806,-0.3803,-0.3786,-0.3814,-0.3813,-0.3813,0,-0.3886,-0.388,-0.3863,-0.3859,-0.3856,-0.3848,-0.3841,-0.3834,-0.3829,-0.3829,-0.3824,-0.3826,-0.3815,-0.3823,-0.3809,-0.3817,-0.3813,-0.3811,-0.3811,-0.381,-0.3819,-0.3805,-0.3781,-0.3779,-0.3809,-0.381,-0.381,0,-0.3868,-0.3856,-0.3844,-0.3842,-0.3837,-0.3831,-0.3829,-0.3825,-0.382,-0.3814,-0.3812,-0.3804,-0.38,-0.3794,-0.3794,-0.38,-0.378,-0.3788,-0.378,-0.378,-0.3775,-0.3776,-0.375,-0.3772,-0.3772,-0.3772,-0.3772,0,-0.3846,-0.3835,-0.3837,-0.3829,-0.3818,-0.382,-0.3808,-0.3806,-0.3803,-0.3796,-0.3799,-0.3792,-0.3792,-0.3785,-0.3785,-0.3774,-0.3772,-0.3772,-0.3772,-0.3771,-0.3772,-0.3769,-0.377,-0.3771,-0.3772,-0.3772,-0.3772,0,-0.3824,-0.3824,-0.3812,-0.381,-0.3809,-0.38,-0.3798,-0.3791,-0.3791,-0.3782,-0.378,-0.3779,-0.3771,-0.377,-0.3761,-0.3761,-0.3747,-0.3749,-0.3749,-0.375,-0.3742,-0.3743,-0.3714,-0.3711,-0.3734,-0.3734,-0.3734,0,-0.381,-0.3802,-0.3799,-0.3795,-0.3792,-0.3785,-0.3781,-0.3783,-0.3778,-0.3773,-0.3767,-0.376,-0.3754,-0.3741,-0.3739,-0.3732,-0.3734,-0.3724,-0.3732,-0.3733,-0.3734,-0.3735,-0.3735,-0.3722,-0.3722,-0.3722,-0.3722,0,-0.3784,-0.3786,-0.378,-0.3774,-0.377,-0.3765,-0.3761,-0.3757,-0.3759,-0.3753,-0.3746,-0.3741,-0.3733,-0.3725,-0.3719,-0.3716,-0.3719,-0.3719,-0.3717,-0.3717,-0.3718,-0.3718,-0.3745,-0.372,-0.372,-0.372,-0.372,-0.372,-0.3766,-0.376,-0.3758,-0.3751,-0.3749,-0.3745,-0.3739,-0.3739,-0.3733,-0.3726,-0.3727,-0.3719,-0.3716,-0.3707,-0.3705,-0.3698,-0.3701,-0.3698,-0.3697,-0.3696,-0.3696,-0.3719,-0.3697,-0.3697,-0.3697,-0.3697,-0.3697,0,-0.3742,-0.3741,-0.3735,-0.373,-0.3725,-0.373,-0.3726,-0.3721,-0.3714,-0.3711,-0.3706,-0.3698,-0.3691,-0.3689,-0.3683,-0.3678,-0.368,-0.3677,-0.3677,-0.3677,-0.3693,-0.3696,-0.3676,-0.3676,-0.3676,-0.3676,-0.3676,-0.3676,-0.3729,-0.3719,-0.372,-0.3709,-0.3708,-0.3701,-0.3698,-0.3695,-0.3693,-0.3684,-0.3679,-0.3678,-0.3676,-0.3669,-0.3664,-0.3663,-0.3661,-0.3658,-0.3658,-0.3673,-0.3675,-0.3677,-0.368,-0.3657,-0.3657,-0.3642,-0.3642,-0.3642]}]]